Weather History for KOGB - September, 2012

Change the Weather History Date:

Saturday, September 8, 2012

  Actual Average Record
Temperature  
Mean Temperature 82 °F 77 °F  
Max Temperature 91 °F 87 °F 100 °F (1980)
Min Temperature 73 °F 67 °F 55 °F (1982)
Degree Days  
Heating Degree Days 0 0  
Month to date heating degree days 0 0  
Since 1 July heating degree days 0 0  
Cooling Degree Days 17 12  
Month to date cooling degree days 132 100  
Year to date cooling degree days 2037 1793  
Growing Degree Days 32 (Base 50)    
Moisture  
Dew Point 72 °F    
Average Humidity 78    
Maximum Humidity 94    
Minimum Humidity 52    
Precipitation  
Precipitation 0.08 in 0.13 in 3.01 in (1950)
Month to date precipitation 3.20 1.13  
Year to date precipitation 34.39 34.44  
Sea Level Pressure  
Sea Level Pressure 29.82 in    
Wind  
Wind Speed 6 mph (SW)    
Max Wind Speed 17 mph    
Max Gust Speed 25 mph    
Visibility 9 miles    
Events Rain    
T = Trace of Precipitation, MM = Missing Value Source: NWS Daily Summary

Daily Weather History Graph

Daily Weather History Graph

Search for Another Location

Airport or City:

Trip Planner

Search our weather history database for the weather conditions in past years. The results will help you decide how hot, cold, wet, or windy it might be!

Date:

Astronomy

Sep. 08, 2012 Rise Set
Actual Time 7:02 AM EDT 7:38 PM EDT
Civil Twilight 6:37 AM EDT 8:03 PM EDT
Nautical Twilight 6:07 AM EDT 8:33 PM EDT
Astronomical Twilight 5:37 AM EDT 9:03 PM EDT
Moon No Moon Rise 2:21 PM EDT (9/8)
Length of Visible Light 13h 26m
Length of Day
12h 36m
Waning Gibbous, 49% of the Moon is Illuminated
Sep 8
Waning Gibbous
Sep 15
New
Sep 22
First Quarter
Sep 29
Full
Oct 8
Last Quarter

Hourly Weather History & Observations

Time (EDT) Temp. Heat Index Dew Point Humidity Pressure Visibility Wind Dir Wind Speed Gust Speed Precip Events Conditions
12:53 AM 75.0 °F - 73.0 °F 94% 29.86 in 7.0 mi Calm Calm - N/A   Mostly Cloudy
1:53 AM 73.9 °F - 72.0 °F 93% 29.85 in 8.0 mi SW 3.5 mph - N/A   Clear
2:53 AM 73.9 °F - 72.0 °F 93% 29.86 in 9.0 mi Calm Calm - N/A   Clear
3:53 AM 73.9 °F - 71.1 °F 91% 29.85 in 8.0 mi SSW 3.5 mph - N/A   Clear
4:53 AM 73.9 °F - 71.1 °F 91% 29.84 in 7.0 mi SW 4.6 mph - N/A   Clear
5:53 AM 73.0 °F - 71.1 °F 93% 29.83 in 8.0 mi SW 3.5 mph - N/A   Clear
6:53 AM 73.0 °F - 71.1 °F 93% 29.84 in 7.0 mi Calm Calm - N/A   Clear
7:53 AM 73.0 °F - 71.1 °F 93% 29.85 in 6.0 mi SSW 3.5 mph - N/A   Clear
8:53 AM 75.9 °F - 72.0 °F 87% 29.85 in 10.0 mi SSW 5.8 mph - N/A   Clear
10:53 AM 82.9 °F 88.8 °F 73.0 °F 72% 29.86 in 10.0 mi WSW 9.2 mph - N/A   Clear
11:53 AM 84.9 °F 91.4 °F 73.0 °F 67% 29.84 in 10.0 mi SW 6.9 mph - N/A   Mostly Cloudy
12:14 PM 87.8 °F 95.6 °F 73.4 °F 62% 29.84 in 10.0 mi SSW 10.4 mph - N/A   Mostly Cloudy
12:23 PM 87.8 °F 95.6 °F 73.4 °F 62% 29.84 in 10.0 mi WSW 6.9 mph 16.1 mph 0.00 in Rain Light Rain
12:53 PM 88.0 °F 95.6 °F 73.0 °F 61% 29.82 in 10.0 mi SW 11.5 mph - 0.00 in   Scattered Clouds
1:53 PM 88.0 °F 95.6 °F 73.0 °F 61% 29.80 in 10.0 mi SSW 11.5 mph - N/A   Mostly Cloudy
2:53 PM 90.0 °F 96.9 °F 72.0 °F 55% 29.77 in 10.0 mi WSW 12.7 mph - N/A   Scattered Clouds
4:53 PM 89.1 °F 95.0 °F 71.1 °F 55% 29.73 in 10.0 mi SW 10.4 mph - N/A   Scattered Clouds
5:53 PM 89.1 °F 95.0 °F 71.1 °F 55% 29.75 in 10.0 mi SSW 6.9 mph - N/A   Partly Cloudy
6:53 PM 81.0 °F 84.9 °F 71.1 °F 72% 29.76 in 10.0 mi SSW 12.7 mph 20.7 mph N/A   Mostly Cloudy
7:53 PM 79.0 °F - 70.0 °F 74% 29.81 in 10.0 mi NW 6.9 mph - N/A   Overcast
8:53 PM 75.0 °F - 70.0 °F 84% 29.82 in 10.0 mi NW 3.5 mph - N/A   Overcast
9:53 PM 73.9 °F - 71.1 °F 91% 29.82 in 8.0 mi Calm Calm - 0.02 in Rain Light Rain
11:53 PM 73.9 °F - 72.0 °F 93% 29.80 in 10.0 mi Calm Calm - 0.00 in   Clear